Temp
76 74 69 67 66 67 68 68 68 68 68 68 68 67 68 65 64 63 62 62 61 60
70 66 66 65 67 67 67 68 68 69 68 68 68 68 67 64 63 63 62 61 61 59
69 68 65 66 67 67 67 68 68 68 68 67 67 68 66 65 63 62 61 61 60 59
64 65 66 67 67 68 68 68 69 68 67 67 67 67 66 64 63 62 61 61 60 60
64 66 66 67 67 67 67 69 69 68 67 68 69 67 65 63 63 62 61 61 60 60
66 67 67 67 67 67 67 68 69 68 68 68 66 65 63 63 63 62 61 61 60 60
67 67 67 67 67 68 68 68 68 68 69 68 66 65 64 64 62 61 61 61 60 60
66 66 66 67 67 67 67 67 69 68 67 65 65 66 65 63 61 60 59 59 59 59
66 66 65 65 66 66 66 66 67 66 65 62 65 53 54 59 60 61 61 57 57 57
66 66 66 67 67 65 64 65 63 62 62 61 60 50 52 55 62 59 58 57 56 57
68 67 68 67 65 61 61 63 60 60 60 59 56 47 48 51 59 58 57 57 58 59
68 68 66 64 63 60 60 59 59 59 57 56 54 45 46 55 58 57 57 58 58 59
69 67 65 63 61 59 61 60 60 59 59 53 53 45 46 56 61 59 58 57 56 48
68 66 64 61 61 59 60 59 58 56 55 54 53 51 46 49 60 59 58 56 54 54
MSLP
997.42 998.05 998.99 999.52 1000.12 1000.55 1000.88 1001.13 1001.65 1001.99 1002.62 1003.24 1004.08 1004.86 1005.46 1006.03 1006.46 1006.89 1007.35 1007.83 1008.15 1008.45
996.57 997.36 998.25 998.76 999.61 1000.01 1000.45 1000.78 1001.42 1001.60 1002.44 1002.78 1003.83 1004.48 1005.10 1005.62 1006.36 1006.89 1007.20 1007.53 1007.90 1008.27
995.64 996.98 997.59 998.26 999.15 999.61 1000.15 1000.50 1001.06 1001.85 1002.26 1002.64 1003.67 1004.16 1004.84 1005.49 1006.20 1006.81 1007.13 1007.42 1007.81 1008.24
995.55 996.40 996.98 997.82 998.55 999.09 999.66 999.96 1000.84 1001.38 1002.00 1002.69 1003.45 1004.02 1004.80 1005.53 1006.10 1006.66 1007.06 1007.34 1007.69 1008.08
995.10 995.89 996.74 997.52 998.01 998.66 999.10 999.66 1000.30 1001.06 1001.99 1002.61 1003.19 1003.86 1004.70 1005.44 1005.89 1006.51 1006.90 1007.28 1007.64 1007.87
994.75 995.49 996.45 997.14 997.56 998.22 998.92 999.51 1000.09 1000.94 1001.78 1002.51 1003.02 1003.77 1004.56 1005.04 1005.72 1006.23 1006.65 1006.97 1007.33 1007.60
994.34 995.22 995.92 996.56 997.35 998.03 998.52 999.13 1000.05 1000.85 1001.54 1002.23 1002.96 1003.66 1004.33 1005.07 1005.56 1006.14 1006.41 1006.68 1007.09 1007.36
993.95 994.90 995.92 996.69 997.37 997.57 998.35 999.16 999.96 1000.72 1001.51 1002.26 1002.93 1003.62 1004.39 1004.88 1005.49 1005.95 1006.39 1006.73 1006.97 1007.20
994.28 995.01 995.72 996.50 997.05 997.85 998.59 999.42 1000.03 1000.95 1001.65 1002.42 1003.04 1003.58 1004.05 1004.67 1005.33 1005.80 1006.23 1006.68 1007.04 1007.23
993.95 994.87 995.52 996.09 997.20 998.01 998.85 999.63 1000.40 1001.10 1001.81 1002.63 1003.19 1003.65 1004.10 1004.47 1005.03 1005.61 1006.16 1006.59 1006.98 1007.36
993.93 994.67 995.31 996.31 997.42 998.43 999.19 999.98 1000.65 1001.40 1002.11 1002.84 1003.71 1004.01 1004.07 1004.48 1005.15 1005.86 1006.23 1006.56 1006.96 1007.18
993.81 994.61 995.66 996.51 997.95 998.77 999.57 1000.31 1000.95 1001.61 1002.43 1003.23 1003.98 1004.25 1004.42 1004.73 1005.41 1005.98 1006.38 1006.61 1006.85 1007.11
993.76 994.93 995.82 996.97 997.97 998.95 999.67 1000.37 1001.17 1002.07 1002.63 1003.29 1004.09 1004.54 1004.63 1004.86 1005.42 1006.17 1006.47 1006.75 1007.04 1007.22
994.26 995.01 996.14 997.29 998.20 999.13 999.94 1000.72 1001.58 1002.35 1003.11 1003.78 1004.19 1004.66 1004.79 1004.94 1005.43 1005.98 1006.51 1006.92 1007.24 1007.39
Wind_Speed
17 9 7 8 5 6 6 6 9 9 9 8 7 6 6 4 4 5 5 7 4 3
12 9 10 9 7 6 6 6 9 9 10 8 7 8 8 5 5 5 5 5 5 3
13 12 8 8 9 9 7 8 9 9 8 9 7 8 7 5 5 6 3 4 5 3
10 10 10 9 9 10 10 10 11 10 10 10 9 8 7 6 6 6 5 3 5 6
9 10 9 9 10 11 11 11 12 11 10 10 11 9 8 8 6 7 6 6 5 5
10 11 11 10 10 10 11 11 11 11 11 11 10 10 7 7 7 6 6 6 6 6
11 11 10 10 11 12 11 12 11 11 11 10 9 8 7 7 7 6 6 6 5 5
11 10 10 11 11 11 12 10 11 11 9 8 8 7 8 7 7 7 6 5 5 4
12 12 12 11 12 12 11 10 11 10 10 8 5 11 11 9 7 6 7 6 5 4
12 13 13 14 14 12 12 11 9 8 8 7 6 10 13 12 6 7 6 6 5 4
14 14 13 13 12 9 7 10 8 7 7 7 4 8 13 11 7 5 5 5 5 5
14 15 13 13 12 8 9 7 6 6 8 8 4 6 11 9 6 5 5 5 4 4
15 15 13 11 11 5 8 7 7 7 6 8 7 6 10 9 5 5 4 3 2 2
14 15 12 10 9 7 8 8 8 8 6 6 5 5 9 10 6 5 4 3 2 1
Wind_Direction
207 192 186 176 168 183 184 172 170 163 160 159 158 163 162 169 157 155 168 171 171 167
184 160 183 178 164 164 167 165 169 159 166 149 157 168 163 151 152 155 167 173 170 149
179 188 163 149 170 172 164 158 154 159 154 137 153 146 144 132 141 158 166 163 163 164
168 159 150 163 172 173 162 160 160 159 149 149 149 141 138 142 155 162 167 159 164 190
141 145 157 173 174 160 165 165 159 147 151 151 152 147 150 163 164 172 174 178 175 195
152 156 174 170 158 159 159 158 147 148 157 158 150 151 164 160 165 173 174 178 184 195
158 166 162 150 153 161 156 146 145 154 154 151 150 155 150 163 152 164 179 180 187 188
146 140 142 149 152 139 146 142 149 144 145 143 145 155 159 153 158 162 160 164 176 174
140 144 143 142 135 137 134 142 142 142 146 137 155 157 146 149 158 157 158 163 164 160
138 142 144 133 140 140 137 133 141 136 138 155 143 159 164 161 156 154 158 162 160 169
144 139 128 129 121 118 130 138 137 136 132 122 123 180 165 142 128 128 155 161 171 175
145 132 135 129 134 132 129 126 129 131 128 131 125 130 138 126 122 134 153 168 177 191
144 139 132 134 130 124 129 121 120 113 117 121 136 133 144 125 138 146 150 136 160 357
144 132 131 125 127 124 117 112 109 106 104 108 129 138 157 140 153 164 149 159 185 170